AAY663 KFAR-KIWA

Flight info

Callsign AAY663
Flight time 2h 36m
Altitude 36000
Route ABR DVV ZUN HUUTY1
Aircraft A320/M-SDE3FGHIRWY/LB1

Departure

Time 2026-05-06 18:41
Airport Hector International Airport (KFAR)

Arrival

Time 2026-05-06 21:17
Airport Mesa Gateway Airport (KIWA)
Time Latitude Longitude Altitude Speed Heading
2026-05-06 18:20 46.92036 -96.82622 908 ft 0 kts 161°
2026-05-06 18:30 46.92042 -96.82626 912 ft 2 kts 161°
2026-05-06 18:30 46.92058 -96.82633 909 ft 2 kts 161°
2026-05-06 18:31 46.92073 -96.82641 909 ft 2 kts 175°
2026-05-06 18:31 46.92089 -96.82642 909 ft 2 kts 169°
2026-05-06 18:31 46.92105 -96.82650 909 ft 2 kts 135°
2026-05-06 18:31 46.92114 -96.82669 911 ft 2 kts 128°
2026-05-06 18:32 46.92122 -96.82685 911 ft 0 kts 118°
2026-05-06 18:32 46.92122 -96.82684 911 ft 0 kts 118°
2026-05-06 18:32 46.92122 -96.82685 911 ft 0 kts 118°
2026-05-06 18:34 46.92116 -96.82655 909 ft 4 kts 100°
2026-05-06 18:34 46.92114 -96.82612 907 ft 8 kts 94°
2026-05-06 18:34 46.92110 -96.82498 908 ft 11 kts 91°
2026-05-06 18:34 46.92109 -96.82389 908 ft 11 kts 89°
2026-05-06 18:35 46.92109 -96.82269 908 ft 12 kts 90°
2026-05-06 18:35 46.92109 -96.82156 908 ft 10 kts 90°
2026-05-06 18:35 46.92109 -96.82048 908 ft 11 kts 90°
2026-05-06 18:35 46.92083 -96.81958 908 ft 10 kts 150°
2026-05-06 18:36 46.92015 -96.81953 908 ft 9 kts 180°
2026-05-06 18:36 46.91952 -96.81954 908 ft 9 kts 180°
2026-05-06 18:36 46.91870 -96.81956 908 ft 12 kts 183°
2026-05-06 18:36 46.91790 -96.81957 908 ft 11 kts 180°
2026-05-06 18:37 46.91697 -96.81958 908 ft 19 kts 180°
2026-05-06 18:37 46.91569 -96.81960 909 ft 17 kts 181°
2026-05-06 18:37 46.91457 -96.81961 909 ft 15 kts 180°
2026-05-06 18:37 46.91360 -96.81962 909 ft 13 kts 180°
2026-05-06 18:38 46.91252 -96.81963 910 ft 18 kts 181°
2026-05-06 18:38 46.91131 -96.81963 909 ft 17 kts 182°
2026-05-06 18:38 46.91022 -96.81970 908 ft 15 kts 181°
2026-05-06 18:38 46.90924 -96.81970 908 ft 13 kts 180°
2026-05-06 18:39 46.90847 -96.81933 908 ft 11 kts 127°
2026-05-06 18:39 46.90835 -96.81830 908 ft 10 kts 93°
2026-05-06 18:39 46.90835 -96.81731 907 ft 12 kts 90°
2026-05-06 18:40 46.90913 -96.81639 907 ft 0 kts 359°
2026-05-06 18:40 46.91029 -96.81638 910 ft 49 kts
2026-05-06 18:40 46.91599 -96.81632 907 ft 113 kts
2026-05-06 18:40 46.92564 -96.81618 935 ft 159 kts
2026-05-06 18:41 46.93675 -96.81534 1541 ft 161 kts
2026-05-06 18:41 46.94801 -96.81396 2255 ft 164 kts
2026-05-06 18:41 46.95967 -96.81252 2839 ft 171 kts
2026-05-06 18:41 46.97192 -96.81075 3264 ft 186 kts
2026-05-06 18:42 46.98529 -96.80883 3691 ft 199 kts
2026-05-06 18:42 46.99929 -96.80701 4243 ft 204 kts
2026-05-06 18:42 47.01351 -96.80827 4627 ft 210 kts 340°
2026-05-06 18:42 47.02618 -96.81949 4914 ft 228 kts 310°
2026-05-06 18:43 47.03290 -96.84134 5294 ft 247 kts 274°
2026-05-06 18:43 47.02890 -96.86599 5980 ft 258 kts 239°
2026-05-06 18:43 47.01589 -96.88451 6756 ft 266 kts 219°
2026-05-06 18:43 47.00054 -96.90008 7541 ft 270 kts 216°
2026-05-06 18:44 46.98458 -96.91498 8320 ft 274 kts 215°
2026-05-06 18:44 46.96835 -96.92985 9084 ft 277 kts 215°
2026-05-06 18:44 46.95212 -96.94480 9847 ft 281 kts 216°
2026-05-06 18:44 46.93535 -96.96045 10328 ft 295 kts 216°
2026-05-06 18:45 46.91751 -96.97738 10486 ft 317 kts 216°
2026-05-06 18:45 46.89863 -96.99541 10932 ft 329 kts 216°
2026-05-06 18:45 46.87932 -97.01380 11561 ft 333 kts 217°
2026-05-06 18:45 46.85976 -97.03247 12243 ft 337 kts 217°
2026-05-06 18:46 46.84003 -97.05132 12919 ft 341 kts 217°
2026-05-06 18:46 46.82007 -97.07039 13588 ft 344 kts 217°
2026-05-06 18:46 46.79991 -97.08962 14204 ft 348 kts 217°
2026-05-06 18:46 46.77953 -97.10905 14773 ft 352 kts 217°
2026-05-06 18:47 46.75891 -97.12866 15344 ft 355 kts 217°
2026-05-06 18:47 46.73810 -97.14847 15913 ft 359 kts 217°
2026-05-06 18:47 46.71708 -97.16847 16488 ft 362 kts 217°
2026-05-06 18:47 46.69591 -97.18859 17047 ft 365 kts 217°
2026-05-06 18:48 46.67447 -97.20890 17610 ft 369 kts 217°
2026-05-06 18:48 46.65315 -97.22910 18153 ft 372 kts 217°
2026-05-06 18:48 46.63137 -97.24979 18663 ft 375 kts 217°
2026-05-06 18:48 46.60943 -97.27059 19145 ft 378 kts 217°
2026-05-06 18:49 46.58724 -97.29157 19640 ft 381 kts 217°
2026-05-06 18:49 46.56496 -97.31260 20130 ft 384 kts 217°
2026-05-06 18:49 46.54249 -97.33377 20618 ft 386 kts 217°
2026-05-06 18:49 46.51984 -97.35506 21106 ft 389 kts 217°
2026-05-06 18:50 46.49700 -97.37653 21586 ft 392 kts 217°
2026-05-06 18:50 46.47401 -97.39816 22072 ft 395 kts 217°
2026-05-06 18:50 46.45088 -97.41991 22540 ft 398 kts 217°
2026-05-06 18:50 46.42754 -97.44185 22999 ft 400 kts 217°
2026-05-06 18:51 46.40434 -97.46361 23440 ft 403 kts 217°
2026-05-06 18:51 46.38067 -97.48575 23846 ft 406 kts 217°
2026-05-06 18:51 46.35684 -97.50799 24216 ft 408 kts 217°
2026-05-06 18:51 46.33301 -97.53023 24583 ft 410 kts 217°
2026-05-06 18:52 46.30898 -97.55266 24938 ft 412 kts 217°
2026-05-06 18:52 46.28487 -97.57517 25290 ft 414 kts 217°
2026-05-06 18:52 46.26057 -97.59785 25636 ft 416 kts 217°
2026-05-06 18:52 46.23620 -97.62054 25973 ft 418 kts 217°
2026-05-06 18:53 46.21172 -97.64331 26304 ft 419 kts 217°
2026-05-06 18:53 46.18714 -97.66618 26634 ft 421 kts 217°
2026-05-06 18:53 46.16246 -97.68909 26960 ft 423 kts 217°
2026-05-06 18:53 46.13761 -97.71206 27283 ft 425 kts 217°
2026-05-06 18:54 46.11267 -97.73506 27607 ft 426 kts 217°
2026-05-06 18:54 46.08763 -97.75816 27915 ft 428 kts 217°
2026-05-06 18:54 46.06251 -97.78137 28228 ft 430 kts 217°
2026-05-06 18:54 46.03764 -97.80433 28525 ft 431 kts 217°
2026-05-06 18:55 46.01229 -97.82771 28807 ft 433 kts 217°
2026-05-06 18:55 45.98689 -97.85112 29081 ft 435 kts 216°
2026-05-06 18:55 45.96133 -97.87462 29361 ft 436 kts 216°
2026-05-06 18:55 45.93569 -97.89819 29631 ft 438 kts 216°
2026-05-06 18:56 45.90996 -97.92185 29887 ft 440 kts 216°
2026-05-06 18:56 45.88414 -97.94557 30141 ft 441 kts 216°
2026-05-06 18:56 45.85817 -97.96935 30339 ft 443 kts 216°
2026-05-06 18:56 45.83215 -97.99311 30520 ft 445 kts 216°
2026-05-06 18:57 45.80599 -98.01693 30731 ft 446 kts 216°
2026-05-06 18:57 45.77976 -98.04079 30975 ft 446 kts 216°
2026-05-06 18:57 45.75359 -98.06463 31220 ft 446 kts 216°
2026-05-06 18:57 45.72737 -98.08852 31469 ft 446 kts 216°
2026-05-06 18:58 45.70118 -98.11233 31705 ft 447 kts 216°
2026-05-06 18:58 45.67486 -98.13621 31947 ft 447 kts 216°
2026-05-06 18:58 45.64893 -98.15969 32176 ft 448 kts 216°
2026-05-06 18:58 45.62259 -98.18349 32407 ft 448 kts 216°
2026-05-06 18:59 45.59620 -98.20733 32639 ft 448 kts 216°
2026-05-06 18:59 45.56986 -98.23117 32866 ft 449 kts 216°
2026-05-06 18:59 45.54342 -98.25509 33085 ft 449 kts 216°
2026-05-06 18:59 45.51695 -98.27900 33319 ft 450 kts 216°
2026-05-06 19:00 45.49050 -98.30289 33545 ft 450 kts 216°
2026-05-06 19:00 45.46398 -98.32682 33780 ft 451 kts 216°
2026-05-06 19:00 45.43747 -98.35069 34007 ft 451 kts 216°
2026-05-06 19:01 45.38845 -98.40552 34121 ft 446 kts 226°
2026-05-06 19:01 45.34226 -98.46473 34124 ft 446 kts 226°
2026-05-06 19:02 45.29633 -98.52332 34107 ft 446 kts 226°
2026-05-06 19:02 45.25002 -98.58213 34115 ft 446 kts 226°
2026-05-06 19:03 45.20373 -98.64082 34118 ft 446 kts 226°
2026-05-06 19:03 45.15736 -98.69953 34140 ft 447 kts 226°
2026-05-06 19:03 45.13413 -98.72892 34350 ft 447 kts 226°
2026-05-06 19:04 45.11876 -98.74832 34490 ft 447 kts 226°
2026-05-06 19:04 45.09558 -98.77753 34698 ft 446 kts 226°
2026-05-06 19:04 45.07237 -98.80671 34892 ft 446 kts 225°
2026-05-06 19:04 45.04164 -98.84533 35128 ft 446 kts 225°
2026-05-06 19:05 45.01851 -98.87443 35324 ft 445 kts 225°
2026-05-06 19:05 45.00287 -98.89410 35441 ft 445 kts 225°
2026-05-06 19:05 44.97975 -98.92319 35610 ft 445 kts 225°
2026-05-06 19:05 44.95660 -98.95227 35782 ft 445 kts 225°
2026-05-06 19:06 44.93349 -98.98120 35947 ft 444 kts 225°
2026-05-06 19:06 44.91037 -99.01010 36084 ft 444 kts 225°
2026-05-06 19:06 44.88725 -99.03893 36123 ft 443 kts 225°
2026-05-06 19:07 44.84136 -99.09605 36117 ft 442 kts 225°
2026-05-06 19:07 44.79526 -99.15333 36115 ft 442 kts 225°
2026-05-06 19:08 44.74909 -99.21069 36115 ft 442 kts 225°
2026-05-06 19:08 44.70287 -99.26794 36116 ft 443 kts 225°
2026-05-06 19:09 44.65659 -99.32512 36114 ft 443 kts 225°
2026-05-06 19:09 44.61031 -99.38226 36113 ft 443 kts 225°
2026-05-06 19:10 44.56415 -99.43900 36114 ft 443 kts 225°
2026-05-06 19:10 44.51771 -99.49600 36117 ft 443 kts 225°
2026-05-06 19:11 44.47123 -99.55286 36119 ft 443 kts 225°
2026-05-06 19:11 44.42480 -99.60957 36116 ft 443 kts 225°
2026-05-06 19:12 44.37834 -99.66629 36116 ft 443 kts 225°
2026-05-06 19:12 44.33181 -99.72294 36121 ft 443 kts 225°
2026-05-06 19:13 44.28555 -99.77905 36121 ft 443 kts 225°
2026-05-06 19:13 44.23891 -99.83559 36122 ft 443 kts 225°
2026-05-06 19:14 44.19253 -99.89159 36120 ft 443 kts 225°
2026-05-06 19:14 44.14591 -99.94778 36116 ft 443 kts 225°
2026-05-06 19:15 44.09932 -100.00390 36123 ft 443 kts 225°
2026-05-06 19:15 44.05265 -100.05997 36122 ft 443 kts 225°
2026-05-06 19:16 44.00600 -100.11592 36117 ft 443 kts 225°
2026-05-06 19:16 43.95927 -100.17181 36122 ft 443 kts 224°
2026-05-06 19:17 43.91252 -100.22751 36119 ft 443 kts 224°
2026-05-06 19:17 43.86598 -100.28290 36122 ft 443 kts 224°
2026-05-06 19:18 43.81922 -100.33855 36124 ft 443 kts 224°
2026-05-06 19:18 43.77244 -100.39411 36124 ft 443 kts 224°
2026-05-06 19:19 43.72557 -100.44953 36128 ft 443 kts 224°
2026-05-06 19:19 43.67863 -100.50488 36131 ft 443 kts 224°
2026-05-06 19:20 43.63157 -100.56027 36129 ft 444 kts 224°
2026-05-06 19:20 43.58489 -100.61518 36131 ft 444 kts 224°
2026-05-06 19:21 43.53780 -100.67029 36120 ft 444 kts 224°
2026-05-06 19:21 43.49068 -100.72534 36115 ft 444 kts 224°
2026-05-06 19:22 43.44353 -100.78051 36110 ft 444 kts 224°
2026-05-06 19:22 43.39646 -100.83554 36097 ft 444 kts 224°
2026-05-06 19:23 43.34924 -100.89042 36087 ft 444 kts 224°
2026-05-06 19:23 43.30229 -100.94487 36089 ft 444 kts 224°
2026-05-06 19:24 43.25507 -100.99964 36090 ft 444 kts 224°
2026-05-06 19:24 43.20773 -101.05430 36107 ft 444 kts 224°
2026-05-06 19:25 43.16035 -101.10890 36121 ft 445 kts 224°
2026-05-06 19:25 43.11316 -101.16326 36132 ft 445 kts 224°
2026-05-06 19:26 43.06565 -101.21780 36147 ft 445 kts 224°
2026-05-06 19:26 43.01821 -101.27221 36153 ft 445 kts 224°
2026-05-06 19:27 42.97096 -101.32638 36154 ft 445 kts 224°
2026-05-06 19:27 42.92327 -101.38073 36149 ft 445 kts 224°
2026-05-06 19:28 42.87568 -101.43488 36154 ft 445 kts 224°
2026-05-06 19:28 42.82834 -101.48865 36155 ft 445 kts 224°
2026-05-06 19:29 42.78064 -101.54274 36159 ft 446 kts 224°
2026-05-06 19:29 42.73293 -101.59671 36161 ft 446 kts 223°
2026-05-06 19:30 42.68551 -101.65036 36161 ft 446 kts 224°
2026-05-06 19:30 42.63779 -101.70425 36160 ft 446 kts 223°
2026-05-06 19:31 42.58997 -101.75798 36160 ft 446 kts 223°
2026-05-06 19:31 42.51818 -101.83839 36158 ft 446 kts 223°
2026-05-06 19:32 42.47042 -101.89190 36158 ft 445 kts 223°
2026-05-06 19:32 42.42257 -101.94532 36154 ft 445 kts 223°
2026-05-06 19:33 42.37470 -101.99861 36154 ft 445 kts 223°
2026-05-06 19:33 42.32686 -102.05186 36156 ft 445 kts 223°
2026-05-06 19:34 42.27905 -102.10501 36153 ft 445 kts 223°
2026-05-06 19:34 42.23115 -102.15814 36147 ft 445 kts 223°
2026-05-06 19:35 42.18353 -102.21076 36152 ft 445 kts 223°
2026-05-06 19:35 42.13556 -102.26349 36148 ft 445 kts 223°
2026-05-06 19:36 42.08745 -102.31634 36147 ft 445 kts 223°
2026-05-06 19:36 42.03975 -102.36885 36146 ft 445 kts 223°
2026-05-06 19:37 41.99178 -102.42164 36143 ft 445 kts 223°
2026-05-06 19:37 41.95191 -102.46538 36140 ft 445 kts 223°
2026-05-06 19:38 41.89603 -102.52647 36136 ft 445 kts 223°
2026-05-06 19:38 41.84785 -102.57887 36132 ft 445 kts 223°
2026-05-06 19:39 41.79966 -102.63120 36132 ft 445 kts 223°
2026-05-06 19:39 41.75143 -102.68356 36131 ft 445 kts 223°
2026-05-06 19:40 41.70356 -102.73555 36130 ft 445 kts 223°
2026-05-06 19:40 41.65521 -102.78788 36126 ft 445 kts 223°
2026-05-06 19:41 41.60720 -102.83967 36122 ft 445 kts 223°
2026-05-06 19:41 41.55886 -102.89170 36120 ft 445 kts 223°
2026-05-06 19:42 41.51048 -102.94365 36117 ft 445 kts 223°
2026-05-06 19:42 41.46251 -102.99512 36114 ft 445 kts 223°
2026-05-06 19:43 41.41412 -103.04694 36123 ft 445 kts 223°
2026-05-06 19:43 41.36587 -103.09846 36132 ft 444 kts 223°
2026-05-06 19:44 41.31782 -103.14968 36141 ft 444 kts 223°
2026-05-06 19:44 41.26972 -103.20091 36140 ft 444 kts 222°
2026-05-06 19:45 41.22135 -103.25231 36140 ft 444 kts 222°
2026-05-06 19:45 41.17293 -103.30369 36135 ft 445 kts 222°
2026-05-06 19:46 41.12483 -103.35465 36133 ft 445 kts 222°
2026-05-06 19:46 41.07639 -103.40580 36145 ft 445 kts 222°
2026-05-06 19:47 41.02792 -103.45696 36152 ft 445 kts 222°
2026-05-06 19:47 40.97934 -103.50812 36153 ft 445 kts 222°
2026-05-06 19:48 40.93104 -103.55879 36156 ft 445 kts 222°
2026-05-06 19:48 40.88228 -103.60981 36158 ft 445 kts 222°
2026-05-06 19:49 40.83392 -103.66041 36164 ft 445 kts 222°
2026-05-06 19:49 40.78533 -103.71128 36163 ft 445 kts 222°
2026-05-06 19:50 40.73695 -103.76167 36167 ft 445 kts 222°
2026-05-06 19:50 40.68802 -103.81239 36155 ft 447 kts 222°
2026-05-06 19:51 40.63923 -103.86306 36146 ft 450 kts 222°
2026-05-06 19:51 40.58972 -103.91443 36148 ft 452 kts 222°
2026-05-06 19:52 40.54030 -103.96548 36158 ft 453 kts 222°
2026-05-06 19:52 40.49066 -104.01669 36159 ft 454 kts 222°
2026-05-06 19:53 40.44106 -104.06790 36171 ft 454 kts 222°
2026-05-06 19:53 40.39953 -104.11065 36177 ft 455 kts 221°
2026-05-06 19:54 40.34953 -104.16194 36179 ft 455 kts 221°
2026-05-06 19:54 40.29986 -104.21274 36174 ft 455 kts 221°
2026-05-06 19:55 40.25014 -104.26358 36176 ft 455 kts 221°
2026-05-06 19:55 40.20017 -104.31463 36178 ft 455 kts 221°
2026-05-06 19:56 40.15015 -104.36557 36178 ft 455 kts 221°
2026-05-06 19:56 40.10046 -104.41611 36183 ft 455 kts 221°
2026-05-06 19:57 40.05062 -104.46670 36189 ft 455 kts 221°
2026-05-06 19:57 40.00032 -104.51762 36194 ft 455 kts 221°
2026-05-06 19:58 39.95041 -104.56809 36199 ft 455 kts 221°
2026-05-06 19:58 39.90056 -104.61836 36204 ft 455 kts 221°
2026-05-06 19:59 39.85022 -104.66885 36202 ft 455 kts 221°
2026-05-06 19:59 39.80009 -104.71899 36203 ft 454 kts 221°
2026-05-06 20:00 39.74999 -104.76893 36203 ft 454 kts 221°
2026-05-06 20:00 39.69972 -104.81886 36203 ft 454 kts 221°
2026-05-06 20:01 39.64971 -104.86848 36206 ft 454 kts 221°
2026-05-06 20:01 39.59942 -104.91830 36205 ft 454 kts 221°
2026-05-06 20:02 39.54911 -104.96800 36207 ft 454 kts 221°
2026-05-06 20:02 39.49923 -105.01717 36215 ft 453 kts 221°
2026-05-06 20:03 39.44891 -105.06674 36216 ft 453 kts 221°
2026-05-06 20:03 39.39901 -105.11590 36203 ft 453 kts 221°
2026-05-06 20:04 39.34877 -105.16527 36202 ft 453 kts 221°
2026-05-06 20:04 39.29845 -105.21456 36206 ft 452 kts 221°
2026-05-06 20:05 39.24853 -105.26341 36195 ft 453 kts 221°
2026-05-06 20:05 39.19817 -105.31264 36186 ft 453 kts 221°
2026-05-06 20:06 39.14812 -105.36140 36177 ft 452 kts 221°
2026-05-06 20:06 39.09779 -105.41020 36177 ft 452 kts 221°
2026-05-06 20:07 39.04777 -105.45876 36186 ft 452 kts 221°
2026-05-06 20:07 38.99749 -105.50766 36194 ft 452 kts 221°
2026-05-06 20:08 38.94749 -105.55597 36198 ft 451 kts 220°
2026-05-06 20:08 38.89728 -105.60449 36194 ft 451 kts 221°
2026-05-06 20:09 38.84709 -105.65294 36191 ft 450 kts 220°
2026-05-06 20:09 38.79693 -105.70117 36185 ft 450 kts 220°
2026-05-06 20:10 38.74711 -105.74898 36178 ft 449 kts 220°
2026-05-06 20:10 38.69701 -105.79704 36165 ft 449 kts 220°
2026-05-06 20:11 38.64691 -105.84491 36155 ft 449 kts 220°
2026-05-06 20:11 38.59689 -105.89267 36144 ft 449 kts 220°
2026-05-06 20:12 38.54684 -105.94047 36139 ft 448 kts 220°
2026-05-06 20:12 38.49714 -105.98781 36136 ft 448 kts 220°
2026-05-06 20:13 38.44713 -106.03539 36134 ft 448 kts 221°
2026-05-06 20:13 38.39716 -106.08279 36138 ft 447 kts 220°
2026-05-06 20:14 38.34712 -106.13012 36132 ft 447 kts 220°
2026-05-06 20:14 38.29725 -106.17725 36103 ft 446 kts 221°
2026-05-06 20:15 38.24773 -106.22400 36079 ft 446 kts 220°
2026-05-06 20:15 38.19791 -106.27089 36050 ft 445 kts 221°
2026-05-06 20:16 38.14812 -106.31773 36041 ft 445 kts 220°
2026-05-06 20:16 38.09828 -106.36450 36026 ft 445 kts 220°
2026-05-06 20:17 38.04842 -106.41110 36020 ft 445 kts 220°
2026-05-06 20:17 37.99859 -106.45776 36024 ft 445 kts 221°
2026-05-06 20:18 37.94874 -106.50437 36027 ft 446 kts 220°
2026-05-06 20:18 37.89905 -106.55070 36034 ft 445 kts 220°
2026-05-06 20:19 37.84917 -106.59717 36034 ft 445 kts 220°
2026-05-06 20:19 37.79903 -106.64372 36030 ft 445 kts 220°
2026-05-06 20:20 37.74906 -106.69006 36027 ft 445 kts 220°
2026-05-06 20:20 37.69943 -106.73603 36011 ft 445 kts 220°
2026-05-06 20:21 37.64947 -106.78225 35992 ft 445 kts 220°
2026-05-06 20:21 37.59945 -106.82835 35984 ft 444 kts 220°
2026-05-06 20:22 37.54948 -106.87440 36004 ft 444 kts 220°
2026-05-06 20:22 37.49956 -106.92028 36025 ft 444 kts 220°
2026-05-06 20:23 37.44970 -106.96604 36046 ft 444 kts 220°
2026-05-06 20:23 37.39964 -107.01197 36068 ft 444 kts 220°
2026-05-06 20:24 37.34991 -107.05740 36077 ft 444 kts 220°
2026-05-06 20:24 37.29973 -107.10309 36077 ft 444 kts 220°
2026-05-06 20:25 37.24990 -107.14857 36076 ft 444 kts 220°
2026-05-06 20:25 37.20014 -107.19399 36047 ft 444 kts 220°
2026-05-06 20:26 37.15000 -107.23957 36010 ft 444 kts 220°
2026-05-06 20:26 37.10023 -107.28465 35973 ft 443 kts 220°
2026-05-06 20:27 37.05006 -107.33003 35938 ft 443 kts 220°
2026-05-06 20:27 37.00028 -107.37512 35931 ft 443 kts 220°
2026-05-06 20:28 36.95013 -107.42047 35938 ft 443 kts 220°
2026-05-06 20:28 36.90037 -107.46534 35940 ft 443 kts 219°
2026-05-06 20:29 36.85030 -107.51033 35941 ft 443 kts 219°
2026-05-06 20:29 36.80025 -107.55530 35946 ft 442 kts 219°
2026-05-06 20:30 36.72540 -107.62238 35951 ft 442 kts 219°
2026-05-06 20:31 36.67567 -107.66693 35945 ft 441 kts 219°
2026-05-06 20:31 36.62557 -107.71173 35952 ft 441 kts 219°
2026-05-06 20:32 36.57573 -107.75610 35951 ft 441 kts 219°
2026-05-06 20:32 36.52602 -107.80033 35962 ft 441 kts 219°
2026-05-06 20:33 36.47626 -107.84454 35964 ft 440 kts 219°
2026-05-06 20:33 36.42646 -107.88859 35969 ft 440 kts 219°
2026-05-06 20:34 36.37642 -107.93298 35967 ft 439 kts 219°
2026-05-06 20:34 36.32690 -107.97686 35966 ft 439 kts 219°
2026-05-06 20:35 36.27720 -108.02078 35966 ft 438 kts 219°
2026-05-06 20:35 36.22753 -108.06452 35966 ft 438 kts 219°
2026-05-06 20:36 36.17818 -108.10795 35957 ft 437 kts 219°
2026-05-06 20:36 36.12861 -108.15153 35955 ft 436 kts 219°
2026-05-06 20:37 36.07916 -108.19502 35951 ft 436 kts 219°
2026-05-06 20:37 36.02998 -108.23802 35951 ft 435 kts 219°
2026-05-06 20:38 35.98052 -108.28111 35946 ft 434 kts 219°
2026-05-06 20:38 35.93121 -108.32422 35947 ft 434 kts 219°
2026-05-06 20:39 35.88202 -108.36730 35947 ft 433 kts 219°
2026-05-06 20:39 35.83280 -108.41026 35949 ft 432 kts 219°
2026-05-06 20:40 35.78394 -108.45264 35943 ft 432 kts 219°
2026-05-06 20:40 35.73485 -108.49523 35971 ft 431 kts 219°
2026-05-06 20:41 35.68574 -108.53786 36004 ft 431 kts 219°
2026-05-06 20:41 35.63674 -108.58031 36039 ft 431 kts 219°
2026-05-06 20:42 35.58773 -108.62258 36073 ft 430 kts 219°
2026-05-06 20:42 35.54696 -108.65768 36104 ft 430 kts 219°
2026-05-06 20:43 35.49008 -108.70675 36117 ft 430 kts 219°
2026-05-06 20:43 35.44116 -108.74883 36120 ft 429 kts 219°
2026-05-06 20:44 35.40013 -108.78404 36106 ft 429 kts 219°
2026-05-06 20:44 35.35154 -108.82572 36077 ft 429 kts 219°
2026-05-06 20:45 35.30263 -108.86758 36044 ft 428 kts 218°
2026-05-06 20:45 35.25381 -108.90933 36080 ft 428 kts 219°
2026-05-06 20:46 35.20508 -108.95106 36111 ft 427 kts 218°
2026-05-06 20:46 35.15633 -108.99261 36141 ft 427 kts 218°
2026-05-06 20:47 35.10760 -109.03398 36140 ft 426 kts 218°
2026-05-06 20:47 35.05928 -109.07508 36122 ft 426 kts 218°
2026-05-06 20:48 35.01069 -109.11638 36100 ft 425 kts 218°
2026-05-06 20:48 34.96314 -109.15900 35750 ft 422 kts 225°
2026-05-06 20:48 34.94253 -109.18428 35482 ft 420 kts 229°
2026-05-06 20:49 34.92233 -109.21014 35226 ft 421 kts 229°
2026-05-06 20:49 34.90201 -109.23599 34965 ft 423 kts 229°
2026-05-06 20:49 34.88157 -109.26187 34708 ft 424 kts 229°
2026-05-06 20:49 34.86106 -109.28780 34450 ft 426 kts 229°
2026-05-06 20:50 34.84051 -109.31383 34234 ft 427 kts 229°
2026-05-06 20:50 34.81993 -109.33996 34012 ft 429 kts 228°
2026-05-06 20:50 34.79922 -109.36627 33749 ft 430 kts 228°
2026-05-06 20:50 34.77845 -109.39264 33503 ft 432 kts 228°
2026-05-06 20:51 34.75785 -109.41875 33244 ft 435 kts 228°
2026-05-06 20:51 34.73688 -109.44538 32992 ft 437 kts 229°
2026-05-06 20:51 34.71755 -109.47384 32730 ft 437 kts 237°
2026-05-06 20:51 34.70132 -109.50514 32474 ft 439 kts 240°
2026-05-06 20:52 34.68545 -109.53692 32216 ft 440 kts 240°
2026-05-06 20:52 34.66954 -109.56866 31955 ft 440 kts 240°
2026-05-06 20:52 34.65359 -109.60043 31693 ft 440 kts 240°
2026-05-06 20:52 34.63764 -109.63215 31437 ft 440 kts 240°
2026-05-06 20:53 34.62165 -109.66398 31181 ft 441 kts 241°
2026-05-06 20:53 34.60571 -109.69580 30926 ft 442 kts 240°
2026-05-06 20:53 34.58969 -109.72777 30669 ft 442 kts 241°
2026-05-06 20:53 34.57370 -109.75966 30416 ft 443 kts 240°
2026-05-06 20:54 34.55764 -109.79165 30198 ft 444 kts 240°
2026-05-06 20:54 34.54153 -109.82368 29963 ft 444 kts 240°
2026-05-06 20:54 34.52567 -109.85521 29703 ft 443 kts 240°
2026-05-06 20:54 34.50961 -109.88712 29447 ft 442 kts 240°
2026-05-06 20:55 34.49360 -109.91887 29186 ft 441 kts 240°
2026-05-06 20:55 34.47759 -109.95052 28930 ft 439 kts 240°
2026-05-06 20:55 34.46167 -109.98201 28677 ft 438 kts 240°
2026-05-06 20:55 34.44580 -110.01342 28417 ft 436 kts 240°
2026-05-06 20:56 34.42994 -110.04478 28156 ft 435 kts 240°
2026-05-06 20:56 34.41415 -110.07598 27884 ft 433 kts 240°
2026-05-06 20:56 34.39841 -110.10704 27620 ft 432 kts 240°
2026-05-06 20:56 34.38272 -110.13799 27368 ft 431 kts 240°
2026-05-06 20:57 34.36748 -110.16920 27107 ft 429 kts 242°
2026-05-06 20:57 34.35298 -110.20068 26835 ft 428 kts 243°
2026-05-06 20:57 34.33903 -110.23201 26539 ft 427 kts 244°
2026-05-06 20:57 34.32504 -110.26381 26020 ft 424 kts 244°
2026-05-06 20:58 34.31129 -110.29495 25498 ft 422 kts 244°
2026-05-06 20:58 34.29733 -110.32623 24970 ft 421 kts 244°
2026-05-06 20:58 34.28331 -110.35728 24447 ft 419 kts 243°
2026-05-06 20:58 34.26927 -110.38807 23932 ft 417 kts 244°
2026-05-06 20:59 34.25523 -110.41873 23375 ft 416 kts 243°
2026-05-06 20:59 34.24125 -110.44922 22843 ft 413 kts 243°
2026-05-06 20:59 34.22740 -110.47944 22337 ft 410 kts 243°
2026-05-06 20:59 34.21365 -110.50948 21842 ft 407 kts 243°
2026-05-06 21:00 34.19997 -110.53931 21363 ft 404 kts 243°
2026-05-06 21:00 34.18653 -110.56861 21187 ft 394 kts 243°
2026-05-06 21:00 34.17296 -110.59680 20641 ft 385 kts 237°
2026-05-06 21:00 34.15575 -110.62163 20188 ft 386 kts 225°
2026-05-06 21:01 34.13523 -110.64175 19807 ft 383 kts 214°
2026-05-06 21:01 34.11212 -110.65783 19401 ft 381 kts 210°
2026-05-06 21:01 34.08902 -110.67327 19004 ft 378 kts 210°
2026-05-06 21:01 34.06608 -110.68857 18610 ft 375 kts 210°
2026-05-06 21:02 34.04316 -110.70384 18226 ft 373 kts 210°
2026-05-06 21:02 34.02057 -110.71894 17795 ft 370 kts 210°
2026-05-06 21:02 33.99816 -110.73393 17349 ft 368 kts 210°
2026-05-06 21:02 33.97600 -110.74877 16675 ft 362 kts 210°
2026-05-06 21:03 33.95419 -110.76339 16141 ft 362 kts 210°
2026-05-06 21:03 33.93224 -110.77809 15731 ft 361 kts 210°
2026-05-06 21:03 33.91034 -110.79272 15312 ft 359 kts 210°
2026-05-06 21:03 33.88857 -110.80723 14908 ft 358 kts 210°
2026-05-06 21:04 33.86690 -110.82166 14525 ft 356 kts 210°
2026-05-06 21:04 33.84598 -110.83735 14185 ft 351 kts 219°
2026-05-06 21:04 33.82841 -110.85748 13815 ft 348 kts 232°
2026-05-06 21:04 33.81364 -110.88025 13513 ft 343 kts 234°
2026-05-06 21:05 33.79925 -110.90256 13270 ft 341 kts 234°
2026-05-06 21:05 33.78473 -110.92499 13040 ft 339 kts 234°
2026-05-06 21:05 33.77027 -110.94726 12808 ft 338 kts 234°
2026-05-06 21:05 33.75577 -110.96951 12574 ft 337 kts 234°
2026-05-06 21:06 33.74133 -110.99160 12354 ft 336 kts 233°
2026-05-06 21:06 33.72698 -111.01365 12124 ft 335 kts 233°
2026-05-06 21:06 33.71266 -111.03572 11898 ft 334 kts 233°
2026-05-06 21:06 33.69838 -111.05771 11669 ft 334 kts 233°
2026-05-06 21:07 33.68410 -111.07968 11439 ft 333 kts 233°
2026-05-06 21:07 33.66998 -111.10136 11279 ft 324 kts 233°
2026-05-06 21:07 33.65630 -111.12228 11148 ft 315 kts 233°
2026-05-06 21:07 33.64290 -111.14275 11004 ft 309 kts 233°
2026-05-06 21:08 33.62972 -111.16306 10857 ft 308 kts 234°
2026-05-06 21:08 33.61694 -111.18366 10569 ft 307 kts 235°
2026-05-06 21:08 33.60451 -111.20434 10307 ft 304 kts 236°
2026-05-06 21:08 33.59227 -111.22492 10034 ft 301 kts 236°
2026-05-06 21:09 33.58016 -111.24529 9759 ft 299 kts 236°
2026-05-06 21:09 33.56811 -111.26547 9488 ft 297 kts 235°
2026-05-06 21:09 33.55607 -111.28548 9232 ft 295 kts 235°
2026-05-06 21:09 33.54409 -111.30533 8973 ft 293 kts 235°
2026-05-06 21:10 33.53234 -111.32488 8692 ft 292 kts 236°
2026-05-06 21:10 33.52067 -111.34465 8415 ft 290 kts 236°
2026-05-06 21:10 33.50909 -111.36437 8135 ft 288 kts 234°
2026-05-06 21:10 33.49534 -111.38184 7949 ft 288 kts 220°
2026-05-06 21:11 33.47908 -111.39521 7958 ft 276 kts 213°
2026-05-06 21:11 33.46310 -111.40764 7966 ft 272 kts 214°
2026-05-06 21:11 33.44743 -111.41988 7914 ft 274 kts 214°
2026-05-06 21:11 33.43125 -111.43250 7484 ft 278 kts 214°
2026-05-06 21:12 33.41529 -111.44491 7298 ft 270 kts 214°
2026-05-06 21:12 33.39961 -111.45709 7173 ft 267 kts 214°
2026-05-06 21:12 33.38393 -111.46892 7059 ft 266 kts 207°
2026-05-06 21:12 33.36644 -111.47590 6888 ft 267 kts 188°
2026-05-06 21:13 33.34769 -111.47669 6430 ft 270 kts 179°
2026-05-06 21:13 33.32888 -111.47656 6000 ft 270 kts 180°
2026-05-06 21:13 33.31030 -111.47652 5599 ft 269 kts 182°
2026-05-06 21:13 33.29205 -111.48147 4967 ft 274 kts 211°
2026-05-06 21:14 33.27640 -111.49461 4341 ft 281 kts 216°
2026-05-06 21:14 33.26029 -111.50769 3861 ft 277 kts 215°
2026-05-06 21:14 33.24432 -111.52060 3472 ft 275 kts 215°
2026-05-06 21:14 33.22878 -111.53320 3141 ft 264 kts 215°
2026-05-06 21:15 33.21621 -111.54758 2815 ft 242 kts 243°
2026-05-06 21:15 33.21361 -111.56621 2554 ft 225 kts 285°
2026-05-06 21:15 33.22169 -111.58110 2378 ft 211 kts 326°
2026-05-06 21:15 33.23544 -111.58648 2199 ft 208 kts 347°
2026-05-06 21:16 33.24914 -111.59148 2005 ft 202 kts 332°
2026-05-06 21:16 33.26087 -111.60096 2087 ft 205 kts 319°
2026-05-06 21:16 33.27125 -111.61217 1850 ft 195 kts 316°
2026-05-06 21:16 33.28098 -111.62316 1792 ft 188 kts 314°
2026-05-06 21:17 33.28984 -111.63395 1628 ft 178 kts 316°
2026-05-06 21:17 33.29843 -111.64367 1418 ft 161 kts 316°
2026-05-06 21:17 33.30556 -111.65196 1383 ft 120 kts 315°
2026-05-06 21:17 33.30922 -111.65616 1372 ft 33 kts 315°
2026-05-06 21:18 33.30944 -111.65741 1370 ft 16 kts 229°
2026-05-06 21:18 33.30857 -111.65846 1367 ft 20 kts 226°
2026-05-06 21:18 33.30757 -111.65967 1365 ft 18 kts 227°
2026-05-06 21:18 33.30694 -111.66074 1363 ft 17 kts 255°
2026-05-06 21:19 33.30693 -111.66225 1361 ft 19 kts 274°
2026-05-06 21:19 33.30701 -111.66375 1363 ft 18 kts 270°
2026-05-06 21:19 33.30702 -111.66521 1364 ft 18 kts 271°
2026-05-06 21:19 33.30706 -111.66670 1362 ft 16 kts 274°
2026-05-06 21:20 33.30642 -111.66752 1362 ft 15 kts 181°
2026-05-06 21:20 33.30598 -111.66763 1362 ft 8 kts 219°
2026-05-06 21:20 33.30595 -111.66832 1361 ft 0 kts 270°